Date Time,Air Temp,Sky Temp,Clarity,Light Level,Rain Sensor,Readings
2012-02-25 00:00:03,16.7,6.2,10.5,0.0,2.4,111
2012-02-25 00:05:03,17.0,6.1,10.9,0.0,2.4,112
2012-02-25 00:10:03,17.0,6.1,10.9,0.0,2.3,112
2012-02-25 00:15:03,17.1,6.0,11.1,0.0,2.3,111
2012-02-25 00:20:03,17.0,6.0,11.0,0.0,2.3,112
2012-02-25 00:25:03,17.0,6.1,10.9,0.0,2.4,112
2012-02-25 00:30:03,17.0,6.0,11.0,0.0,2.3,111
2012-02-25 00:35:03,17.1,6.2,10.9,0.0,2.3,112
2012-02-25 00:40:03,17.1,6.1,11.0,0.0,2.3,111
2012-02-25 00:45:03,17.2,6.0,11.2,0.0,2.3,112
2012-02-25 00:50:03,17.2,6.1,11.2,0.0,2.3,111
2012-02-25 00:55:03,17.2,6.0,11.2,0.0,2.3,112
2012-02-25 01:00:03,17.2,6.2,10.9,0.0,2.3,111
2012-02-25 01:05:03,17.2,6.6,10.7,0.0,2.3,112
2012-02-25 01:10:03,17.2,6.2,11.0,0.0,2.3,111
2012-02-25 01:15:03,17.2,6.4,10.8,0.0,2.3,111
2012-02-25 01:20:03,17.2,6.5,10.7,0.0,2.3,112
2012-02-25 01:25:03,17.3,7.3,10.0,0.0,2.4,112
2012-02-25 01:30:03,17.4,7.8,9.6,0.0,2.5,111
2012-02-25 01:35:03,17.4,6.6,10.8,0.0,2.5,111
2012-02-25 01:40:03,17.4,7.0,10.4,0.0,2.4,112
2012-02-25 01:45:03,17.4,7.0,10.4,0.0,2.5,111
2012-02-25 01:50:03,17.4,7.5,9.9,0.0,2.5,112
2012-02-25 01:55:03,17.4,7.7,9.7,0.0,2.5,111
2012-02-25 02:00:03,17.4,8.1,9.4,0.0,2.5,111
2012-02-25 02:05:03,17.4,7.9,9.5,0.0,2.5,112
2012-02-25 02:10:03,17.4,8.2,9.2,0.0,2.6,111
2012-02-25 02:15:03,17.4,8.1,9.3,0.0,2.5,112
2012-02-25 02:20:03,17.3,8.2,9.2,0.0,2.5,111
2012-02-25 02:25:03,17.3,7.7,9.6,0.0,2.5,111
2012-02-25 02:30:03,17.3,6.9,10.5,0.0,2.3,112
2012-02-25 02:35:03,17.3,6.9,10.4,0.0,2.3,111
2012-02-25 02:40:03,17.3,7.4,10.0,0.0,2.3,112
2012-02-25 02:45:03,17.4,7.1,10.2,0.0,2.3,112
2012-02-25 02:50:03,17.4,7.0,10.4,0.0,2.3,112
2012-02-25 02:55:03,17.3,6.8,10.5,0.0,2.3,111
2012-02-25 03:00:03,17.1,6.8,10.4,0.0,2.3,112
2012-02-25 03:05:03,17.0,6.7,10.4,0.0,2.3,111
2012-02-25 03:10:03,17.0,6.7,10.3,0.0,2.3,111
2012-02-25 03:15:03,17.0,6.5,10.5,0.0,2.3,112
2012-02-25 03:20:03,17.0,6.5,10.5,0.0,2.3,111
2012-02-25 03:25:03,17.0,6.4,10.6,0.0,2.3,111
2012-02-25 03:30:03,17.0,6.4,10.6,0.0,2.3,111
2012-02-25 03:35:03,17.0,6.2,10.8,0.0,2.6,111
2012-02-25 03:40:03,16.9,6.4,10.5,0.0,2.9,112
2012-02-25 03:45:03,16.9,6.4,10.5,0.0,2.6,111
2012-02-25 03:50:03,16.9,6.4,10.5,0.0,2.2,111
2012-02-25 03:55:03,16.9,6.2,10.7,0.0,2.3,111
2012-02-25 04:00:03,17.0,6.5,10.5,0.0,2.2,112
2012-02-25 04:05:03,17.0,6.8,10.2,0.0,2.3,111
2012-02-25 04:10:03,17.0,6.5,10.6,0.0,2.3,111
2012-02-25 04:15:03,17.0,6.2,10.8,0.0,2.3,112
2012-02-25 04:20:03,17.0,5.8,11.2,0.0,2.3,111
2012-02-25 04:25:03,17.0,5.7,11.3,0.0,2.7,112
2012-02-25 04:30:03,16.9,5.8,11.1,0.0,2.6,112
2012-02-25 04:35:03,16.9,6.2,10.7,0.0,2.5,111
2012-02-25 04:40:03,17.0,6.7,10.3,0.0,2.4,112
2012-02-25 04:45:03,17.0,6.5,10.5,0.0,2.3,111
2012-02-25 04:50:03,17.0,7.0,10.0,0.0,2.2,111
2012-02-25 04:55:03,17.0,7.0,10.0,0.0,2.2,112
2012-02-25 05:00:03,16.9,6.8,10.2,0.0,2.2,111
2012-02-25 05:05:03,17.0,7.7,9.4,0.0,2.2,112
2012-02-25 05:10:03,17.2,8.3,8.9,0.0,2.3,112
2012-02-25 05:15:03,17.1,7.6,9.6,0.0,2.3,111
2012-02-25 05:20:03,17.0,7.5,9.6,0.0,2.3,112
2012-02-25 05:25:03,17.0,8.1,8.9,0.0,2.3,111
2012-02-25 05:30:03,17.0,6.1,10.8,0.0,2.2,112
2012-02-25 05:35:03,16.6,5.8,10.8,0.0,2.4,111
2012-02-25 05:40:03,16.2,5.9,10.3,0.0,2.4,111
2012-02-25 05:45:03,15.8,5.8,10.0,0.0,2.3,112
2012-02-25 05:50:03,15.9,6.1,9.8,0.0,2.3,111
2012-02-25 05:55:03,15.9,6.0,9.8,0.0,2.4,111
2012-02-25 06:00:03,15.7,6.1,9.7,0.0,2.4,112
2012-02-25 06:05:03,15.7,6.4,9.3,0.1,2.3,111
2012-02-25 06:10:03,15.7,6.2,9.5,0.2,2.3,111
2012-02-25 06:15:03,15.7,6.2,9.5,0.6,2.3,112
2012-02-25 06:20:03,15.7,5.4,10.2,1.2,2.4,112
2012-02-25 06:25:03,15.5,5.5,9.9,2.5,2.3,111
2012-02-25 06:30:03,15.3,6.3,9.0,4.9,2.4,112
2012-02-25 06:35:03,15.3,6.3,9.0,8.6,2.4,111
2012-02-25 06:40:03,15.4,6.1,9.3,13.0,2.3,112
2012-02-25 06:45:03,15.5,6.7,8.8,17.5,2.4,111
2012-02-25 06:50:03,15.6,5.9,9.6,21.5,2.3,112
2012-02-25 06:55:03,15.6,5.9,9.7,25.4,2.3,112
2012-02-25 07:00:03,15.5,5.7,9.8,27.6,2.3,111
2012-02-25 07:05:03,15.6,5.8,9.8,29.3,2.3,111
2012-02-25 07:10:03,15.5,5.6,10.0,30.2,2.3,112
2012-02-25 07:15:03,15.4,5.3,10.1,30.9,2.3,112
2012-02-25 07:20:03,15.3,5.5,9.8,31.3,2.3,112
2012-02-25 07:25:03,15.3,4.9,10.4,31.7,2.3,111
2012-02-25 07:30:03,15.3,5.2,10.1,31.7,2.3,112
2012-02-25 07:35:03,15.3,5.1,10.2,31.8,2.3,111
2012-02-25 07:40:03,15.2,4.8,10.4,31.7,2.3,112
2012-02-25 07:45:03,15.1,5.2,10.0,31.7,2.3,112
2012-02-25 07:50:03,15.2,5.1,10.1,31.5,2.3,112
2012-02-25 07:55:03,15.2,5.0,10.2,31.6,2.3,112
2012-02-25 08:00:03,15.2,5.1,10.1,31.9,2.3,112
2012-02-25 08:05:03,15.2,4.7,10.4,32.2,2.3,111
2012-02-25 08:10:03,15.1,4.7,10.4,32.2,2.3,112
2012-02-25 08:15:03,15.2,4.9,10.2,32.2,2.3,111
2012-02-25 08:20:03,15.2,4.6,10.6,32.2,2.3,112
2012-02-25 08:25:03,15.2,4.6,10.6,32.3,2.3,111
2012-02-25 08:30:03,15.3,4.6,10.7,32.3,2.3,112
2012-02-25 08:35:03,15.3,2.4,13.0,32.3,2.3,111
2012-02-25 08:40:03,15.5,5.3,10.2,32.4,2.3,112
2012-02-25 08:45:03,15.6,4.5,11.2,32.3,2.3,111
2012-02-25 08:50:03,15.7,4.2,11.5,32.4,2.3,112
2012-02-25 08:55:03,15.9,4.7,11.2,32.4,2.3,111
2012-02-25 09:00:03,15.9,4.6,11.3,32.3,2.4,112
2012-02-25 09:05:03,15.7,4.4,11.3,32.4,2.3,112
2012-02-25 09:10:03,15.7,4.9,10.8,32.4,2.3,111
2012-02-25 09:15:03,15.8,5.1,10.7,32.4,2.3,112
2012-02-25 09:20:03,15.8,5.3,10.5,32.4,2.3,112
2012-02-25 09:25:03,15.8,4.9,11.0,32.3,2.4,112
2012-02-25 09:30:03,15.7,4.8,10.9,32.4,2.3,111
2012-02-25 09:35:03,15.6,4.8,10.9,32.4,2.3,112
2012-02-25 09:40:03,15.6,4.7,10.9,32.4,2.3,111
2012-02-25 09:45:03,15.6,4.6,11.0,32.5,2.3,112
2012-02-25 09:50:03,15.6,4.4,11.2,32.4,2.3,112
2012-02-25 09:55:03,15.6,4.5,11.1,32.5,2.3,111
2012-02-25 10:00:04,15.7,4.5,11.2,32.4,2.3,112
2012-02-25 10:05:04,15.6,4.5,11.1,32.4,2.3,112
2012-02-25 10:10:04,15.5,4.9,10.7,32.4,2.3,111
2012-02-25 10:15:04,15.7,4.7,11.1,32.5,2.3,112
2012-02-25 10:20:04,16.1,0.5,15.5,32.5,2.3,111
2012-02-25 10:25:04,16.5,-1.0,17.5,32.5,2.3,112
2012-02-25 10:30:04,17.2,3.8,13.4,32.6,2.3,111
2012-02-25 10:35:04,18.1,2.2,15.9,32.6,2.4,111
2012-02-25 10:40:04,18.7,0.4,18.3,32.5,2.4,112
2012-02-25 10:45:04,19.3,4.3,15.1,32.6,2.2,111
2012-02-25 10:50:04,20.2,6.0,14.2,32.5,2.1,112
2012-02-25 10:55:04,19.8,5.7,14.2,32.5,2.1,111
2012-02-25 11:00:04,19.0,4.3,14.6,32.5,2.1,112
2012-02-25 11:05:04,18.4,0.9,17.4,32.5,2.3,111
2012-02-25 11:10:04,18.2,3.1,15.1,32.5,2.3,112
2012-02-25 11:15:04,18.6,4.1,14.4,32.6,2.3,111
2012-02-25 11:20:04,19.3,3.1,16.2,32.6,2.1,111
2012-02-25 11:25:04,19.6,3.4,16.2,32.5,1.8,112
2012-02-25 11:30:04,19.6,4.5,15.1,32.5,1.8,111
2012-02-25 11:35:04,19.5,4.1,15.4,32.5,1.8,112
2012-02-25 11:40:04,20.9,-1.2,22.1,32.5,2.2,112
2012-02-25 11:45:04,23.4,-1.9,25.3,32.5,2.4,111
2012-02-25 11:50:04,24.2,-2.9,27.1,32.5,2.3,112
2012-02-25 11:55:04,24.9,-3.4,28.3,32.6,2.4,111
2012-02-25 12:00:04,25.5,-6.1,31.6,32.6,2.3,112
2012-02-25 12:05:04,26.1,-3.3,29.4,32.6,2.3,111
2012-02-25 12:10:04,27.1,-4.8,31.9,32.6,2.3,111
2012-02-25 12:15:04,27.1,-9.7,36.7,32.6,2.3,112
2012-02-25 12:20:04,27.4,-1.4,28.8,32.6,2.3,111
2012-02-25 12:25:04,28.3,2.8,25.5,32.6,2.2,112
2012-02-25 12:30:04,27.8,-0.8,28.5,32.6,2.2,112
2012-02-25 12:35:04,26.3,-9.4,35.7,32.5,2.3,111
2012-02-25 12:40:04,25.7,-8.8,34.5,32.6,2.3,112
2012-02-25 12:45:04,26.7,-3.5,30.2,32.6,2.3,112
2012-02-25 12:50:04,28.2,-0.7,28.9,32.6,2.3,111
2012-02-25 12:55:04,27.8,-6.1,33.9,32.6,2.3,112
2012-02-25 13:00:04,26.4,-7.7,34.1,32.6,2.3,112
2012-02-25 13:05:04,25.1,-8.7,33.8,32.6,2.3,111
2012-02-25 13:10:04,26.0,-6.3,32.3,32.6,2.3,112
2012-02-25 13:15:04,27.1,-6.3,33.5,32.6,2.3,111
2012-02-25 13:20:04,27.6,-7.3,34.8,32.6,2.3,112
2012-02-25 13:25:04,27.6,0.8,26.9,32.6,2.3,111
2012-02-25 13:30:04,26.8,-2.5,29.4,32.6,2.3,111
2012-02-25 13:35:04,26.0,-10.9,36.9,32.5,2.3,112
2012-02-25 13:40:04,25.5,-8.4,33.8,32.6,2.3,111
2012-02-25 13:45:04,26.5,-6.4,32.9,32.6,2.3,112
2012-02-25 13:50:04,26.8,-7.8,34.6,32.6,2.3,112
2012-02-25 13:55:04,25.8,-9.1,34.9,32.6,2.3,111
2012-02-25 14:00:04,25.9,-6.7,32.6,32.6,2.3,112
2012-02-25 14:05:04,26.7,-8.1,34.8,32.6,2.3,112
2012-02-25 14:10:04,27.5,-8.6,36.2,32.6,2.3,111
2012-02-25 14:15:04,28.0,-9.6,37.6,32.6,2.3,112
2012-02-25 14:20:04,28.1,-8.5,36.6,32.6,2.2,111
2012-02-25 14:25:04,28.2,-8.8,37.0,32.6,2.3,112
2012-02-25 14:30:04,28.2,-8.0,36.3,32.6,2.3,112
2012-02-25 14:35:04,28.4,-8.2,36.6,32.6,2.3,111
2012-02-25 14:40:04,28.3,-9.6,37.9,32.6,2.3,112
2012-02-25 14:45:04,27.8,-9.1,37.0,32.6,2.3,112
2012-02-25 14:50:04,27.6,-9.6,37.2,32.6,2.3,111
2012-02-25 14:55:04,27.4,-10.0,37.4,32.6,2.2,112
2012-02-25 15:00:04,27.6,-7.8,35.4,32.6,2.2,111
2012-02-25 15:05:04,27.7,-10.2,37.9,32.6,2.2,112
2012-02-25 15:10:04,27.5,-10.8,38.4,32.6,2.3,112
2012-02-25 15:15:04,27.3,-10.9,38.3,32.6,2.3,111
2012-02-25 15:20:04,27.4,-10.2,37.6,32.6,2.3,112
2012-02-25 15:25:04,27.1,-10.0,37.1,32.6,2.3,112
2012-02-25 15:30:04,26.8,-9.9,36.7,32.6,2.3,112
2012-02-25 15:35:04,26.8,-10.6,37.4,32.6,2.3,111
2012-02-25 15:40:04,26.8,-9.6,36.3,32.6,2.3,112
2012-02-25 15:45:04,26.8,-10.1,36.9,32.6,2.3,111
2012-02-25 15:50:04,26.8,-10.5,37.3,32.6,2.3,112
2012-02-25 15:55:04,26.9,-9.7,36.6,32.6,2.3,112
2012-02-25 16:00:04,26.7,-11.1,37.7,32.6,2.3,111
2012-02-25 16:05:04,25.9,-11.7,37.5,32.6,2.3,111
2012-02-25 16:10:04,26.2,-10.7,36.9,32.6,2.3,112
2012-02-25 16:15:04,26.1,-11.5,37.6,32.6,2.3,111
2012-02-25 16:20:04,25.9,-11.4,37.4,32.6,2.3,112
2012-02-25 16:25:04,25.8,-11.9,37.6,32.6,2.3,111
2012-02-25 16:30:04,25.5,-12.4,37.9,32.6,2.3,111
2012-02-25 16:35:04,25.3,-11.9,37.2,32.6,2.3,112
2012-02-25 16:40:04,25.0,-13.5,38.5,32.6,2.3,111
2012-02-25 16:45:04,24.6,-13.4,38.0,32.6,2.3,112
2012-02-25 16:50:04,24.3,-13.3,37.6,32.6,2.3,111
2012-02-25 16:55:04,24.0,-13.5,37.5,32.5,2.4,112
2012-02-25 17:00:04,23.8,-13.7,37.6,32.5,2.3,111
2012-02-25 17:05:04,23.6,-13.5,37.1,32.5,2.3,112
2012-02-25 17:10:04,23.5,-12.6,36.1,32.5,2.3,111
2012-02-25 17:15:04,23.4,-11.8,35.2,32.4,2.3,111
2012-02-25 17:20:04,23.1,-12.3,35.4,32.4,2.3,111
2012-02-25 17:25:04,22.6,-12.4,35.0,32.2,2.3,112
2012-02-25 17:30:04,22.3,-14.0,36.3,32.0,2.3,111
2012-02-25 17:35:04,21.9,-14.0,35.9,31.7,2.5,112
2012-02-25 17:40:04,21.6,-13.9,35.5,31.2,2.3,111
2012-02-25 17:45:04,21.4,-15.0,36.4,30.6,2.2,112
2012-02-25 17:50:04,21.1,-15.2,36.3,29.6,1.9,111
2012-02-25 17:55:04,21.0,-15.0,36.1,27.6,2.1,112
2012-02-25 18:00:04,20.8,-14.2,35.0,24.1,2.3,112
2012-02-25 18:05:04,20.2,-14.7,34.9,18.7,2.3,111
2012-02-25 18:10:04,20.5,-15.2,35.6,12.5,2.3,112
2012-02-25 18:15:04,20.3,-14.0,34.3,7.4,2.3,111
2012-02-25 18:20:04,20.3,-13.6,33.9,4.1,2.3,112
2012-02-25 18:25:04,20.2,-14.3,34.5,2.1,2.3,111
2012-02-25 18:30:04,20.2,-14.3,34.5,1.1,2.3,112
2012-02-25 18:35:04,20.2,-14.1,34.2,0.6,2.3,112
2012-02-25 18:40:04,20.1,-14.4,34.5,0.3,2.3,111
2012-02-25 18:45:04,20.0,-14.1,34.1,0.2,2.3,111
2012-02-25 18:50:04,20.0,-12.9,32.9,0.1,2.3,112
2012-02-25 18:55:04,19.8,-12.6,32.4,0.0,2.3,111
2012-02-25 19:00:04,19.8,-12.4,32.2,0.0,2.3,111
2012-02-25 19:05:04,19.8,-12.3,32.1,0.0,2.3,112
2012-02-25 19:10:04,19.6,-12.4,32.0,0.0,2.5,112
2012-02-25 19:15:04,19.3,-12.5,31.7,0.0,2.6,111
2012-02-25 19:20:04,19.2,-12.5,31.6,0.0,2.5,111
2012-02-25 19:25:04,19.1,-12.3,31.4,0.0,2.6,112
2012-02-25 19:30:04,19.2,-12.3,31.5,0.0,2.4,112
2012-02-25 19:35:04,19.2,-12.1,31.3,0.0,2.3,111
2012-02-25 19:40:04,19.3,-12.0,31.3,0.0,2.3,111
2012-02-25 19:45:04,19.3,-12.7,32.1,0.0,2.3,112
2012-02-25 19:50:04,19.5,-13.2,32.7,0.0,2.3,111
2012-02-25 19:55:04,19.3,-13.3,32.7,0.0,2.6,112
2012-02-25 20:00:04,19.2,-13.5,32.7,0.0,2.6,112
2012-02-25 20:05:04,19.6,-13.6,33.2,0.0,2.3,112
2012-02-25 20:10:04,19.9,-13.7,33.6,0.0,2.3,111
2012-02-25 20:15:04,20.2,-13.9,34.1,0.0,2.3,112
2012-02-25 20:20:04,20.3,-14.0,34.3,0.0,2.3,110
2012-02-25 20:25:04,20.3,-13.8,34.1,0.0,2.3,112
2012-02-25 20:30:04,20.0,-14.2,34.2,0.0,2.3,111
2012-02-25 20:35:04,19.5,-14.2,33.7,0.0,2.4,112
2012-02-25 20:40:04,19.3,-13.8,33.1,0.0,2.5,111
2012-02-25 20:45:04,19.2,-13.7,32.9,0.0,2.3,112
2012-02-25 20:50:04,18.7,-13.4,32.1,0.0,2.3,112
2012-02-25 20:55:04,18.6,-13.6,32.2,0.0,2.3,111
2012-02-25 21:00:04,18.6,-14.2,32.8,0.0,2.3,112
2012-02-25 21:05:04,18.7,-14.5,33.1,0.0,2.3,111
2012-02-25 21:10:04,19.0,-14.7,33.7,0.0,2.3,111
2012-02-25 21:15:04,19.1,-14.7,33.8,0.0,2.3,112
2012-02-25 21:20:04,18.9,-14.8,33.7,0.0,2.3,112
2012-02-25 21:25:04,18.8,-14.8,33.5,0.0,2.3,111
2012-02-25 21:30:04,18.8,-14.6,33.4,0.0,2.2,111
2012-02-25 21:35:04,18.9,-14.0,32.9,0.0,2.2,112
2012-02-25 21:40:04,18.8,-13.0,31.8,0.0,2.2,111
2012-02-25 21:45:04,18.7,-13.4,32.1,0.0,2.3,111
2012-02-25 21:50:04,18.7,-14.7,33.4,0.0,2.3,111
2012-02-25 21:55:04,19.0,-14.8,33.8,0.0,2.3,112
2012-02-25 22:00:04,19.2,-14.4,33.5,0.0,2.3,111
2012-02-25 22:05:04,19.2,-14.7,33.9,0.0,2.3,112
2012-02-25 22:10:04,18.8,-14.7,33.4,0.0,2.3,111
2012-02-25 22:15:04,18.9,-15.0,33.9,0.0,2.2,112
2012-02-25 22:20:04,18.7,-14.9,33.6,0.0,2.2,111
2012-02-25 22:25:04,18.7,-14.7,33.5,0.0,2.2,111
2012-02-25 22:30:04,18.8,-14.7,33.5,0.0,2.3,112
2012-02-25 22:35:04,18.8,-14.8,33.6,0.0,2.3,111
2012-02-25 22:40:04,18.9,-14.1,33.0,0.0,2.3,111
2012-02-25 22:45:04,19.0,-15.1,34.0,0.0,2.3,112
2012-02-25 22:50:04,18.9,-14.6,33.4,0.0,2.3,111
2012-02-25 22:55:04,18.8,-13.0,31.8,0.0,2.3,112
2012-02-25 23:00:04,18.9,-13.7,32.5,0.0,2.2,112
2012-02-25 23:05:04,18.8,-13.7,32.4,0.0,2.2,112
2012-02-25 23:10:04,18.8,-14.1,32.8,0.0,2.3,111
2012-02-25 23:15:04,18.7,-14.3,33.0,0.0,2.3,112
2012-02-25 23:20:04,18.7,-15.1,33.8,0.0,2.3,111
2012-02-25 23:25:04,18.6,-15.0,33.7,0.0,2.3,112
2012-02-25 23:30:04,18.6,-15.2,33.8,0.0,2.4,111
2012-02-25 23:35:04,18.6,-14.9,33.5,0.0,2.4,111
2012-02-25 23:40:04,18.4,-14.7,33.1,0.0,2.3,112
2012-02-25 23:45:04,18.5,-14.6,33.1,0.0,2.3,112
2012-02-25 23:50:04,18.5,-15.0,33.5,0.0,2.3,111
2012-02-25 23:55:04,18.4,-15.0,33.4,0.0,2.3,112
